This demonstration page uses our WeatherBlox Daily Observations layout. Learn more.

38.88101, -77.10428

Hourly Observations for January 22, 2020

Temp ( °F °C ) Dew Point ( °F °C ) Humidity (%) Winds ( mph kmh ) Pressure ( in mb ) Visibility ( mi km ) Precip ( " mm )
12:52 am 00:52 Mostly Clear 27 -2.8 16 -8.9 63 63 NNW 9 15 30.48 1032 10 16.0934 0 0
1:52 am 01:52 Mostly Clear 26 -3.3 15 -9.4 63 63 NNW 9 15 30.47 1032 10 16.0934 0 0
2:52 am 02:52 Partly Cloudy 25 -3.9 15 -9.4 66 66 NNW 7 11 30.48 1032 10 16.0934 0 0
3:52 am 03:52 Mostly Clear 24 -4.4 15 -9.4 68 68 NW 7 11 30.48 1032 10 16.0934 0 0
4:52 am 04:52 Mostly Clear 24 -4.4 15 -9.4 68 68 NNW 6 9 30.47 1032 10 16.0934 0 0
5:52 am 05:52 Clear 25 -3.9 14 -10 63 63 N 6 9 30.49 1032 10 16.0934 0 0
6:52 am 06:52 Clear 25 -3.9 14 -10 63 63 NNW 6 9 30.51 1033 10 16.0934 0 0
7:52 am 07:52 Sunny 25 -3.9 15 -9.4 66 66 NNW 8 13 30.53 1034 10 16.0934 0 0
8:52 am 08:52 Sunny 30 -1.1 15 -9.4 54 54 N 7 11 30.54 1034 10 16.0934 0 0
9:52 am 09:52 Mostly Sunny 32 0 15 -9.4 50 50 Calm 30.54 1034 10 16.0934 0 0
10:52 am 10:52 Mostly Sunny 34 1.1 16 -8.9 48 48 E 3 6 30.53 1034 10 16.0934 0 0
11:52 am 11:52 Mostly Sunny 34 1.1 18 -7.8 52 52 SE 7 11 30.51 1033 10 16.0934 0 0
12:52 pm 12:52 Mostly Sunny 36 2.2 18 -7.8 48 48 SE 5 7 30.47 1032 10 16.0934 0 0
1:52 pm 13:52 Mostly Sunny 37 2.8 18 -7.8 46 46 ESE 3 6 30.45 1031 10 16.0934 0 0
2:52 pm 14:52 Mostly Sunny 39 3.9 16 -8.9 39 39 E 3 6 30.43 1031 10 16.0934 0 0
3:52 pm 15:52 Partly Cloudy 39 3.9 16 -8.9 39 39 ESE 3 6 30.43 1031 10 16.0934 0 0
4:52 pm 16:52 Mostly Cloudy 39 3.9 16 -8.9 39 39 Calm 30.43 1031 10 16.0934 0 0
5:52 pm 17:52 Mostly Cloudy 38 3.3 17 -8.3 43 43 Calm 30.44 1031 10 16.0934 0 0
6:52 pm 18:52 Partly Cloudy 37 2.8 20 -6.7 50 50 Calm 30.45 1031 10 16.0934 0 0
7:52 pm 19:52 Partly Cloudy 34 1.1 20 -6.7 56 56 SSE 8 13 30.45 1031 10 16.0934 0 0
8:52 pm 20:52 Partly Cloudy 32 0 21 -6.1 64 64 S 3 6 30.45 1031 10 16.0934 0 0
9:52 pm 21:52 Partly Cloudy 33 0.6 21 -6.1 61 61 Calm 30.45 1031 10 16.0934 0 0
10:52 pm 22:52 Partly Cloudy 32 0 22 -5.6 66 66 WSW 3 6 30.46 1032 10 16.0934 0 0
11:52 pm 23:52 Partly Cloudy 32 0 21 -6.1 64 64 Calm 30.46 1032 10 16.0934 0 0

Powered by AerisWeather